FENGYUN 1C DEB, 38144

Orbit data source: Space-Track

FENGYUN 1C DEB, 38144 is space debris in SSO originally from a launch on Mon, 10 May 1999 UTC launched from the Taiyaun Space Center, China (TSC). Fengyun 1C debris stems from the Chinese weather satellite Fengyun-1C, which was intentionally destroyed by a Chinese anti-satellite missile in 2007. This event dramatically increased the amount of space debris, with thousands of trackable fragments posing hazards to satellites and human spaceflight. The Fengyun 1C debris cloud has become a focal point in discussions about space sustainability and the need for international regulations to prevent the creation of new debris.

Loading next visibility...
Identifier
38144, 1999-025EQR
Orbit
SSO
Country
Flag of CNCN / PRC
Related business
Manufacturer
Unknown
Mission
Spacecraft
Bus & Motor
Unknown
Mass
Unknown
Launch date (UTC)
1999-05-10 (27 years ago)
Launch vehicle
Unknown
Launch site
Taiyaun Space Center, China (TSC)
Object type
Payload
Rocket body
Debris
Shape & HBR
Unknown shape, 0.1 m
Radar Cross Section
Small (<0.1 m²)

Expand to show TLE details & history
Last TLE update: 1 week ago

TLE from 1 week ago
0 FENGYUN 1C DEB
1 38144U 99025EQR 26202.19529124  .00000506  00000-0  56177-3 0  9990
2 38144  98.9824  13.4766 0288067 341.6862  17.4074 13.59553545640323
Epoch: 2026-07-21T04:41Z
TLE epoch observation values (Epoch: 2026-07-21T04:41:13.163Z)
Latitude
Longitude
4.20329°
Altitude
836.846 km
Speed
7.536 km/s
True Right ascension
00h 53m 54s
True Declination
0° 00' 00"
Sunlit
Object was in daylight at epoch
Visualization orbit readout
Latitude
Unknown
Longitude
Unknown
Altitude
Unknown
Speed
Unknown
Apparent Right ascension
Unknown
Apparent Declination
Unknown
Sunlit
N/A
Visualization observer readout
Local Sidereal Time
03:16:12
Azimuth
Unknown
Elevation
Unknown
Doppler factor
Unknown
Orbital elements
Apogee altitude
1,248.1 km
Perigee altitude
821.029 km
Semi-major axis
7,412.702 km
Eccentricity
0.02881
Inclination
98.9824°
RAAN
13.4766°
Arg. of periapsis
341.6862°
True anomaly
18.42997°
Mean anomaly
17.4074°
Eccentric anomaly
17.91511°
Mean motion
3.40078 °/min
Orbital period
105.86 mins
BSTAR
0.00056177
Loading maneuver chart data...
Computing Atmospheric mass density...

Documentation

Showing up to 5 results
|